Regional Weather Roundup
Issued by NWS

Home | Current Version | Previous Version | Graphics & Text | Print | Product List | Glossary On
Versions: 1 2 3 4 5 6 7 8 9 10 11 12 13 14 15 16 17 18 19 20 21 22 23 24 25 26 27 28 29 30 31 32 33 34 35 36 37 38 39 40 41 42 43 44 45 46 47 48 49 50
907
ASUS43 KOAX 180110
RWRNE

WEATHER ROUNDUP FOR NEBRASKA
NATIONAL WEATHER SERVICE OMAHA NE
700 PM CST TUE JAN 17 2017

NOTES: SATELLITE DATA IS BEING USED TO AUGMENT CLOUD COVER ABOVE
       12000 FEET.
       "FAIR" INDICATES FEW OR NO CLOUDS BELOW 12,000 FEET WITH NO
       SIGNIFICANT WEATHER AND/OR OBSTRUCTIONS TO VISIBILITY.

  * THESE STATIONS DO NOT REPORT WEATHER SUCH AS RAIN...SNOW OR FOG.

NEZ001>004-019>022-054>056-180200-
NEBRASKA PANHANDLE

CITY           SKY/WX    TMP DP  RH WIND       PRES   REMARKS
SCOTTSBLUFF    CLOUDY    38  15  39 W9        29.98R WCI  31
ALLIANCE       CLOUDY    25  18  74 S6        29.95S WCI  18
CHADRON        CLOUDY    25  20  81 SW3       29.94S
KIMBALL        CLOUDY    32  28  86 W6        30.00R WCI  26
SIDNEY         CLOUDY    32  27  81 SW12      30.00R WCI  23
$$

NEZ057>060-069>072-079>082-180200-
SOUTHWEST NEBRASKA

CITY           SKY/WX    TMP DP  RH WIND       PRES   REMARKS
NORTH PLATTE   CLOUDY    36  27  69 SW6       30.01F WCI  31
IMPERIAL       CLOUDY    34  29  82 SW6       30.03R WCI  29
LEXINGTON      CLOUDY    34  26  70 S5        30.03F WCI  30
MCCOOK         CLOUDY    39  27  62 SW6       30.04S WCI  35
OGALLALA       CLOUDY    34  29  81 W5        30.01R WCI  30
$$

NEZ005>010-023>029-035>040-094-180200-
NORTH CENTRAL NEBRASKA

CITY           SKY/WX    TMP DP  RH WIND       PRES   REMARKS
VALENTINE      CLOUDY    34  16  47 SW12      29.92F WCI  25
AINSWORTH      CLOUDY    36  25  64 S9        29.95R WCI  29
BROKEN BOW     CLOUDY    33  26  75 S3        30.00F
O`NEILL        CLEAR     35  32  88 S8        29.98S WCI  29
ORD            CLEAR     29  25  85 S5        30.01S WCI  24
THEDFORD       CLOUDY    37  28  69 SW7       29.98S WCI  32
$$

NEZ041-046>049-061>064-073>077-083>087-180200-
SOUTH CENTRAL NEBRASKA

CITY           SKY/WX    TMP DP  RH WIND       PRES   REMARKS
GRAND ISLAND   CLEAR     31  31 100 S7        30.05F WCI  24
AURORA         CLEAR     33  32  96 S7        30.05F WCI  27
HASTINGS       CLEAR     35  32  88 S5        30.06F WCI  31
HEBRON         CLEAR     30  29  97 CALM      30.09F
HOLDREGE       CLEAR     36  29  78 SW7       30.05S WCI  30
KEARNEY *      CLEAR     32  28  86 S6        30.04F WCI  26
YORK           CLEAR     32  32 100 S6        30.07F WCI  26
$$

NEZ011>018-030>034-042>045-180200-
NORTHEAST NEBRASKA

CITY           SKY/WX    TMP DP  RH WIND       PRES   REMARKS
NORFOLK        CLOUDY    28  26  92 S6        30.03S WCI  22
ALBION         CLOUDY    32  30  93 SE5       30.03F WCI  27
BLAIR          CLEAR     31  29  93 CALM      30.08S
FREMONT        CLEAR     31  31  99 CALM      30.09F
TEKAMAH        CLEAR     32  29  88 S8        30.09R WCI  25
WAYNE          CLEAR     29  28  96 S7        30.04F WCI  22
$$

NEZ050>053-065>068-078-088>093-180200-
SOUTHEAST NEBRASKA

CITY           SKY/WX    TMP DP  RH WIND       PRES   REMARKS
LINCOLN        CLEAR     30  29  96 S3        30.11S
OMAHA EPPLEY   CLEAR     28  23  81 S7        30.11R WCI  21
BEATRICE       CLEAR     32  31  96 CALM      30.10F
FALLS CITY     CLEAR     31  30  96 CALM      30.12S
NEBRASKA CITY  CLEAR     31  31  99 SW3       30.11S
PLATTSMOUTH    CLEAR     30  27  90 S5        30.10S FOG     WCI  25
$$

NEZ044-045-051>053-067-180200-
OMAHA AREA

CITY           SKY/WX    TMP DP  RH WIND       PRES   REMARKS
OMAHA EPPLEY   CLEAR     28  23  81 S7        30.11R WCI  21
BLAIR          CLEAR     31  29  93 CALM      30.08S
FREMONT        CLEAR     31  31  99 CALM      30.09F
MILLARD        CLEAR     31  29  92 CALM      30.10S
OFFUTT AFB     CLEAR     28  28 100 CALM      30.10S
PLATTSMOUTH    CLEAR     30  27  90 S5        30.10S FOG     WCI  25
WAHOO          FAIR      31  29  92 S3        30.09S
$$




USA.gov is the U.S. government's official web portal to all federal, state and local government web resources and services.